This demonstration page uses our WeatherBlox Daily Observations layout. Learn more.

Left ArrowRight Arrow

40.92945, -100.16068

Hourly Observations for April 6, 2016

Temp ( °F °C ) Dew Point ( °F °C ) Humidity (%) Winds ( mph kmh ) Pressure ( in mb ) Visibility ( mi km ) Precip ( " mm )
12:15 am 00:15 Clear 50 10 27 -3 40 40 NW 21 33 29.91 1013 10 16 N/A
12:35 am 00:35 Clear 49 9.7 27 -2.8 42 42 NW 25 41 29.91 1013 10 16 N/A
12:55 am 00:55 Clear 49 9.6 27 -2.6 43 43 NW 25 41 29.91 1013 10 16 N/A
1:15 am 01:15 Partly Cloudy 49 9.5 28 -2 45 45 NW 23 37 29.91 1013 10 16 N/A
1:35 am 01:35 Mostly Cloudy 50 10 29 -1.8 44 44 NW 23 37 29.91 1013 10 16 N/A
1:55 am 01:55 Cloudy 51 10.6 29 -1.7 43 43 NW 25 41 29.91 1013 10 16 N/A
2:15 am 02:15 Cloudy 51 10.6 29 -1.7 43 43 NW 26 43 29.91 1013 10 16 N/A
2:35 am 02:35 Cloudy 51 10.5 29 -1.7 43 43 NW 23 37 29.91 1013 10 16 N/A
2:55 am 02:55 Cloudy 51 10.5 29 -1.8 43 43 NW 24 39 29.91 1013 10 16 N/A
3:15 am 03:15 Cloudy 51 10.5 29 -1.7 43 43 NW 20 31 29.91 1013 10 16 N/A
3:35 am 03:35 Cloudy 51 10.5 29 -1.5 44 44 NW 15 24 29.91 1013 10 16 N/A
3:55 am 03:55 Cloudy 51 10.6 30 -1.1 44 44 NW 17 28 29.94 1014 10 16 N/A
4:15 am 04:15 Cloudy 51 10.6 30 -1 45 45 NNW 29 46 29.94 1014 10 16 N/A
4:35 am 04:35 Partly Cloudy 49 9.5 31 -0.8 49 49 NW 35 56 29.94 1014 10 16 N/A
4:55 am 04:55 Clear 48 9.1 30 -1.3 48 48 NW 37 59 29.97 1015 10 16 N/A
5:15 am 05:15 Clear 47 8.6 29 -1.5 49 49 NNW 26 43 29.97 1015 10 16 N/A
5:35 am 05:35 Clear 47 8.6 28 -2 48 48 NNW 29 46 29.97 1015 10 16 N/A
5:55 am 05:55 Clear 47 8.5 28 -2.5 46 46 NNW 31 50 29.97 1015 10 16 N/A
6:15 am 06:15 Clear 46 7.8 28 -2.3 49 49 NW 31 50 29.97 1015 10 16 N/A
6:35 am 06:35 Clear 46 7.6 28 -2.1 51 51 NNW 26 43 29.97 1015 10 16 N/A
6:55 am 06:55 Clear 45 7 28 -2.1 53 53 NW 18 30 29.97 1015 10 16 N/A
7:15 am 07:15 Sunny 44 6.5 28 -2.1 55 55 NW 24 39 30.00 1016 10 16 N/A
7:35 am 07:35 Sunny 44 6.5 28 -2.1 55 55 NW 24 39 30.00 1016 10 16 N/A
7:55 am 07:55 Sunny 45 7.3 29 -1.5 54 54 NW 25 41 30.00 1016 10 16 N/A
8:15 am 08:15 Sunny 46 7.8 30 -1.2 53 53 NW 28 44 30.03 1017 10 16 N/A
8:35 am 08:35 Sunny 47 8.2 30 -1.1 52 52 NW 30 48 30.03 1017 10 16 N/A
8:55 am 08:55 Sunny 48 8.7 29 -1.4 49 49 NNW 36 57 30.03 1017 10 16 N/A
9:15 am 09:15 Sunny 49 9.3 29 -1.5 47 47 NNW 33 54 30.03 1017 10 16 N/A
9:35 am 09:35 Sunny 50 10 29 -1.6 45 45 NNW 38 61 30.00 1016 10 16 N/A
9:55 am 09:55 Sunny 51 10.5 29 -1.9 42 42 NNW 33 54 30.00 1016 10 16 N/A
10:15 am 10:15 Sunny 52 11.3 29 -1.9 40 40 NNW 31 50 30.00 1016 10 16 N/A
10:35 am 10:35 Sunny 53 11.9 27 -2.7 36 36 NNW 39 63 30.00 1016 10 16 N/A
10:55 am 10:55 Sunny 54 12.4 28 -2.5 36 36 NNW 33 54 30.00 1016 10 16 N/A
11:15 am 11:15 Sunny 56 13.3 28 -2.3 34 34 NW 39 63 29.97 1015 10 16 N/A
11:35 am 11:35 Sunny 56 13.5 28 -2.4 33 33 NNW 32 52 30.00 1016 10 16 N/A
11:55 am 11:55 Sunny 57 14 28 -2.4 32 32 NW 26 43 29.97 1015 10 16 N/A
12:15 pm 12:15 Sunny 59 15 28 -2.2 31 31 NW 29 46 29.97 1015 10 16 N/A
12:35 pm 12:35 Sunny 59 15.2 28 -2.2 30 30 NW 35 56 30.00 1016 10 16 N/A
12:55 pm 12:55 Sunny 60 15.4 28 -2.4 30 30 NW 31 50 29.97 1015 10 16 N/A
1:15 pm 13:15 Sunny 61 16 27 -2.6 28 28 NNW 31 50 29.97 1015 10 16 N/A
1:35 pm 13:35 Sunny 61 16.3 26 -3.1 26 26 NNW 24 39 29.97 1015 10 16 N/A
1:55 pm 13:55 Partly Cloudy 62 16.8 26 -3.4 25 25 NW 23 37 29.94 1014 10 16 N/A
2:15 pm 14:15 Sunny 63 17.1 25 -3.7 24 24 NW 26 43 29.91 1013 10 16 N/A
2:35 pm 14:35 Sunny 64 17.6 25 -4 23 23 NNW 26 43 29.91 1013 10 16 N/A
2:55 pm 14:55 Sunny 65 18.1 25 -4 22 22 NW 22 35 29.91 1013 10 16 N/A
3:15 pm 15:15 Sunny 65 18.4 24 -4.3 21 21 NNW 25 41 29.88 1012 10 16 N/A
3:35 pm 15:35 Sunny 65 18.5 25 -4.1 21 21 NNW 18 30 29.85 1011 10 16 N/A
3:55 pm 15:55 Sunny 65 18.6 25 -4.1 21 21 NW 22 35 29.85 1011 10 16 N/A
4:15 pm 16:15 Sunny 66 19.1 25 -3.8 21 21 NW 24 39 29.83 1010 10 16 N/A
4:35 pm 16:35 Sunny 66 18.9 25 -4 21 21 NW 21 33 29.85 1011 10 16 N/A
4:55 pm 16:55 Sunny 66 18.7 25 -3.8 22 22 NW 32 52 29.85 1011 10 16 N/A
5:15 pm 17:15 Sunny 65 18.6 25 -4 21 21 NW 26 43 29.85 1011 10 16 N/A
5:35 pm 17:35 Sunny 66 19 26 -3.6 21 21 NNW 24 39 29.80 1009 10 16 N/A
5:55 pm 17:55 Sunny 66 18.9 26 -3.6 22 22 NNW 22 35 29.80 1009 10 16 N/A
6:15 pm 18:15 Sunny 65 18.4 25 -4 22 22 NNW 28 44 29.83 1010 10 16 N/A
6:35 pm 18:35 Sunny 66 18.7 26 -3.2 23 23 NNW 23 37 29.80 1009 10 16 N/A
6:55 pm 18:55 Sunny 66 18.7 26 -3.2 23 23 NNW 17 28 29.80 1009 10 16 N/A
7:15 pm 19:15 Sunny 64 17.7 28 -2.5 25 25 N 15 24 29.83 1010 10 16 N/A
7:35 pm 19:35 Sunny 62 16.4 28 -2.2 28 28 N 10 17 29.83 1010 10 16 N/A
7:55 pm 19:55 Mostly Cloudy 59 15.2 28 -2.3 30 30 NNE 8 13 29.85 1011 10 16 N/A
8:15 pm 20:15 Cloudy 58 14.7 28 -2.2 31 31 NNE 5 7 29.83 1010 10 16 N/A
8:35 pm 20:35 Cloudy 58 14.5 28 -2.5 31 31 Calm 29.85 1011 10 16 N/A
8:55 pm 20:55 Cloudy 57 14 26 -3.4 30 30 Calm 29.85 1011 10 16 N/A
9:15 pm 21:15 Cloudy 57 13.9 27 -3 31 31 WSW 3 6 29.88 1012 10 16 N/A
9:35 pm 21:35 Mostly Cloudy 55 12.5 29 -1.7 38 38 WNW 3 6 29.88 1012 10 16 N/A
9:55 pm 21:55 Cloudy 57 14 29 -1.7 34 34 N 9 15 29.91 1013 10 16 N/A
10:15 pm 22:15 Mostly Cloudy 55 12.9 31 -0.6 40 40 N 6 9 29.91 1013 10 16 N/A
10:35 pm 22:35 Mostly Cloudy 56 13.3 30 -1.1 37 37 N 9 15 29.91 1013 10 16 N/A
10:55 pm 22:55 Cloudy 56 13.3 31 -0.5 39 39 N 7 11 29.91 1013 10 16 N/A
11:15 pm 23:15 Cloudy 55 12.8 31 -0.4 40 40 NNW 6 9 29.91 1013 10 16 N/A
11:35 pm 23:35 Cloudy 55 12.8 32 0 42 42 NNW 6 9 29.97 1015 10 16 N/A
11:55 pm 23:55 Cloudy 54 12.1 32 0.1 44 44 NNW 9 15 29.97 1015 10 16 N/A

Powered by AerisWeather